Fort Sill, OK

6:00 AM CST on February 20, 2017 (GMT -0600)
Post Army Air Field

Weather History for KFSI - December, 2012

Change the Weather History Date:

Saturday, December 15, 2012

  Actual Average Record
Temperature  
Mean Temperature 50 °F -  
Max Temperature 57 °F 50 °F 75 °F (1977)
Min Temperature 43 °F 29 °F 7 °F (1985)
Degree Days  
Heating Degree Days 15    
Moisture  
Dew Point 36 °F    
Average Humidity 57    
Maximum Humidity 73    
Minimum Humidity 42    
Precipitation  
Precipitation 0.00 in - - ()
Sea Level Pressure  
Sea Level Pressure 29.77 in    
Wind  
Wind Speed 11 mph (SW)    
Max Wind Speed 17 mph    
Max Gust Speed 26 mph    
Visibility 10 miles    
Events      
Averages and records for this station are not official NWS values.
T = Trace of Precipitation, MM = Missing Value Source: NWS Daily Summary

Daily Weather History Graph

Daily Weather History Graph

Search for Another Location

Airport or City:

Trip Planner

Search our weather history database for the weather conditions in past years. The results will help you decide how hot, cold, wet, or windy it might be!

Date:

Astronomy

Dec. 15, 2012 Rise Set
Actual Time 7:33 AM CST 5:24 PM CST
Civil Twilight 7:05 AM CST 5:52 PM CST
Nautical Twilight 6:34 AM CST 6:24 PM CST
Astronomical Twilight 6:03 AM CST 6:54 PM CST
Moon 9:31 AM CST (12/15) 8:24 PM CST (12/15)
Length of Visible Light 10h 46m
Length of Day
9h 50m
Waxing Crescent, 8% of the Moon is Illuminated
Dec 15
Waxing Crescent
Dec 19
First Quarter
Dec 28
Full
Jan 4
Last Quarter
Jan 11
New

Hourly Weather History & Observations

Time (CST) Temp. Windchill Dew Point Humidity Pressure Visibility Wind Dir Wind Speed Gust Speed Precip Events Conditions
12:55 AM 52.3 °F - 42.6 °F 69% 29.74 in 10.0 mi SW 15.0 mph 21.9 mph N/A   Clear
1:55 AM 50.9 °F - 41.0 °F 69% 29.72 in 10.0 mi SW 15.0 mph 26.5 mph N/A   Clear
2:55 AM 49.8 °F - 38.8 °F 66% 29.72 in 10.0 mi SSW 17.3 mph 24.2 mph N/A   Clear
3:55 AM 48.7 °F - 37.2 °F 64% 29.73 in 10.0 mi SSW 13.8 mph 20.7 mph N/A   Clear
4:55 AM 47.1 °F - 36.0 °F 65% 29.75 in 10.0 mi SSW 5.8 mph - N/A   Clear
5:55 AM 43.9 °F 38.8 °F 35.6 °F 73% 29.77 in 10.0 mi SW 9.2 mph - N/A   Clear
6:55 AM 43.7 °F 40.3 °F 34.7 °F 71% 29.79 in 10.0 mi West 5.8 mph - N/A   Clear
7:55 AM 43.0 °F 38.8 °F 34.5 °F 72% 29.80 in 10.0 mi West 6.9 mph - N/A   Clear
8:55 AM 45.5 °F 39.9 °F 34.7 °F 66% 29.81 in 10.0 mi WSW 11.5 mph - N/A   Clear
9:55 AM 50.9 °F - 34.9 °F 54% 29.82 in 10.0 mi WSW 12.7 mph - N/A   Clear
10:55 AM 54.7 °F - 34.0 °F 46% 29.83 in 10.0 mi WSW 12.7 mph - N/A   Clear
11:55 AM 55.6 °F - 34.2 °F 44% 29.80 in 10.0 mi WSW 10.4 mph - N/A   Clear
12:55 PM 55.4 °F - 36.3 °F 49% 29.78 in 10.0 mi WSW 13.8 mph - N/A   Clear
3:55 PM 57.9 °F - 34.7 °F 42% 29.73 in 10.0 mi SW 9.2 mph - N/A   Clear
4:55 PM 57.2 °F - 36.1 °F 45% 29.75 in 10.0 mi SSW 4.6 mph - N/A   Clear
5:55 PM 55.0 °F - 36.1 °F 49% 29.75 in 10.0 mi South 8.1 mph - N/A   Clear
6:55 PM 56.5 °F - 33.8 °F 42% 29.76 in 10.0 mi SSW 8.1 mph - N/A   Clear
7:55 PM 54.5 °F - 34.9 °F 48% 29.78 in 10.0 mi SW 9.2 mph - N/A   Clear
8:55 PM 52.0 °F - 35.2 °F 53% 29.77 in 10.0 mi SW 5.8 mph - N/A   Clear
9:55 PM 51.8 °F - 36.0 °F 55% 29.76 in 10.0 mi SW 4.6 mph - N/A   Clear
10:55 PM 50.4 °F - 36.0 °F 58% 29.76 in 10.0 mi WSW 3.5 mph - N/A   Clear
11:55 PM 48.7 °F - 36.7 °F 63% 29.77 in 10.0 mi WSW 4.6 mph - N/A   Partly Cloudy